RH
41 34 31 35 39 38 41 46 49 48 45 50 60 59 58 62 53 50 63 70 73 81 83 79 76 74 75 76 78 81 84 85 85 85 87 90 91 93 95 96 99 99 99 100 99 97 95 92 95 97 97 99 96 95 94 88 86 85 78 80 89 90 91 89 81 82 83 76 73 73 74 81 85 85 84 78 74 73 70 65 61 59 57 55 59 63 64
60 49 31 31 38 38 40 41 42 48 50 50 56 59 58 60 59 61 68 75 80 82 79 78 79 79 79 79 80 83 85 87 88 87 89 91 92 96 99 99 100 100 99 100 99 100 99 97 98 98 96 97 97 98 97 89 90 94 91 93 96 87 82 79 71 75 77 65 61 67 73 82 88 85 82 78 72 71 68 66 64 62 59 57 57 59 62
69 61 38 34 39 41 45 49 48 51 54 55 58 63 64 65 68 68 67 74 81 77 73 77 80 80 80 78 81 85 86 88 89 89 90 93 94 97 100 100 100 99 99 100 99 100 100 99 99 100 98 98 98 99 99 95 94 96 95 98 94 81 75 72 67 72 75 62 58 67 71 75 79 77 73 69 68 71 72 70 70 68 64 60 59 61 66
60 60 47 40 40 42 52 64 66 64 63 64 66 70 73 74 79 76 70 75 80 74 73 77 77 78 80 81 83 86 87 88 90 90 92 95 98 99 100 100 100 99 99 100 100 100 100 99 99 99 100 100 100 99 99 96 96 97 99 100 95 85 79 72 67 71 72 62 60 67 67 68 72 68 60 55 55 61 66 63 65 73 75 73 72 72 69
54 60 62 53 47 55 70 79 76 70 69 69 70 75 77 77 82 84 80 79 76 71 74 79 78 80 84 87 89 91 91 90 91 92 94 96 100 100 100 100 100 100 100 99 100 100 100 100 99 99 99 100 100 99 98 98 98 99 98 94 91 88 82 75 71 72 69 64 66 69 67 70 72 62 53 53 54 54 55 53 55 67 77 80 77 68 58
58 63 73 67 59 69 80 76 67 66 71 74 75 79 79 76 79 81 77 73 71 71 76 80 81 84 88 92 95 95 95 93 92 94 96 98 100 100 100 100 100 100 100 100 100 100 99 100 100 100 100 99 99 99 99 100 101 99 96 90 85 82 79 78 77 73 69 67 68 71 72 74 72 60 54 57 58 54 53 54 54 57 64 67 64 57 53
57 61 72 75 75 79 78 67 59 60 67 69 72 79 80 78 79 79 73 72 73 74 78 82 85 90 95 98 99 97 96 95 93 94 97 100 100 99 100 100 100 100 100 100 100 100 100 101 98 96 98 99 98 98 99 100 101 99 94 90 87 83 82 83 82 80 76 73 72 74 78 77 72 67 66 65 64 62 58 56 56 56 56 58 61 62 58
51 58 64 73 81 78 73 68 62 63 68 68 72 84 88 83 83 85 80 75 74 76 81 87 90 92 92 94 99 100 96 92 90 92 95 98 100 100 100 100 100 100 100 100 100 100 99 98 93 90 95 100 98 97 99 100 101 100 97 94 93 91 88 86 87 88 84 80 80 81 81 77 71 71 75 73 71 70 62 54 55 59 59 58 62 68 65
50 55 60 73 83 81 80 79 72 73 79 78 79 88 89 80 78 84 83 77 76 80 84 87 88 89 85 85 94 101 98 91 89 90 94 96 98 100 100 100 100 99 98 98 99 100 99 97 93 90 93 99 99 99 99 99 99 100 100 99 98 96 94 90 88 85 79 78 83 81 74 71 68 71 79 79 77 76 68 57 56 60 60 58 60 66 69
49 52 64 76 82 86 89 83 72 72 78 78 78 85 85 77 73 78 83 83 84 86 86 86 88 89 84 83 92 100 100 95 90 90 95 98 99 100 100 99 98 94 91 91 92 95 97 97 98 96 95 98 99 99 99 100 100 99 99 100 100 99 97 94 90 85 79 77 80 75 69 72 75 77 80 79 78 78 72 65 62 62 63 62 62 66 71
48 57 67 73 83 92 90 79 71 72 75 76 79 86 88 82 75 76 80 84 88 91 92 93 94 91 85 86 94 100 100 99 95 91 94 97 97 97 96 94 91 86 81 81 81 82 84 88 93 95 95 97 98 97 97 96 96 97 98 99 100 99 98 96 94 92 89 88 87 82 80 84 85 84 83 82 80 80 78 76 75 75 75 76 76 77 78
49 61 62 66 84 93 85 76 74 75 77 79 85 94 93 84 80 82 83 84 88 93 96 95 95 94 89 90 98 100 98 98 98 95 96 95 92 90 87 85 84 79 72 70 71 73 73 74 76 79 83 87 90 93 97 98 96 96 97 97 97 97 96 95 95 94 91 90 89 88 88 88 85 83 82 80 79 81 81 82 82 82 83 82 82 81 82
50 57 60 68 83 87 81 77 76 79 84 85 89 97 94 85 86 91 92 92 93 96 97 95 95 97 97 97 100 98 92 90 89 87 86 83 77 73 70 70 74 77 75 72 69 69 69 67 63 63 66 70 69 69 74 83 87 91 95 97 96 95 94 94 96 96 94 93 91 89 88 87 87 87 86 86 87 86 84 84 84 84 85 86 87 85 83
57 51 59 76 86 86 82 78 74 76 85 86 86 92 94 92 95 98 98 99 99 98 99 99 98 99 97 94 95 95 91 88 84 79 73 69 66 63 60 58 59 65 73 78 76 73 71 65 57 54 59 65 61 51 47 53 60 66 73 80 83 85 86 87 89 89 90 91 89 86 85 85 86 86 84 85 85 81 81 84 84 82 81 79 78 77 76
65 54 65 80 85 83 81 77 73 75 84 88 87 90 95 99 100 99 100 101 99 97 99 100 99 98 96 94 94 95 93 88 83 78 73 69 67 65 64 63 60 57 61 69 73 73 68 58 47 41 43 52 56 47 38 37 40 42 46 53 57 60 61 62 62 64 69 71 67 66 68 69 70 69 67 65 59 52 55 58 54 53 53 51 53 55 53
68 69 83 91 90 87 84 83 84 86 89 91 91 92 95 98 98 98 100 100 99 99 100 100 100 99 98 98 96 93 91 86 79 78 78 75 74 71 67 67 66 63 65 72 77 77 73 67 59 50 45 51 60 58 50 45 42 38 37 37 36 36 37 37 35 36 42 44 40 39 40 41 44 45 43 42 37 32 33 37 40 44 39 36 50 62 60
70 76 87 86 85 86 85 87 90 90 90 93 94 94 94 95 96 98 99 99 99 98 97 97 98 100 100 100 98 96 95 90 83 80 79 78 79 79 78 78 76 74 77 81 82 80 79 77 76 73 69 71 77 76 71 68 65 61 60 57 47 36 32 34 36 35 32 31 30 28 27 27 29 31 32 34 33 32 33 36 48 61 53 40 48 56 53
68 76 77 69 69 75 80 85 88 87 89 92 92 93 95 97 99 98 98 98 97 95 93 93 94 94 92 92 93 92 92 90 88 86 83 80 79 79 81 82 81 78 80 82 81 79 78 76 76 77 77 77 79 77 75 75 75 75 78 79 72 62 53 50 50 43 33 30 31 29 28 30 26 22 25 30 33 38 42 38 39 48 48 45 51 54 50
68 78 70 54 53 60 62 67 73 76 81 86 88 92 97 99 99 98 97 96 95 94 94 94 92 90 88 89 91 89 85 85 84 83 81 81 80 80 80 78 76 74 74 75 75 77 77 75 73 72 72 73 75 74 74 73 74 76 78 77 76 76 72 67 63 53 45 51 53 44 44 55 55 47 44 44 41 41 46 55 59 54 50 57 67 68 66
66 71 60 46 48 51 47 49 55 60 66 74 80 86 92 94 95 96 96 95 96 97 98 97 95 94 93 92 90 84 79 77 75 73 74 76 78 79 81 80 77 75 73 71 72 73 74 73 73 72 71 69 69 70 71 72 73 75 78 77 75 74 73 71 71 66 62 70 75 64 57 60 60 58 64 72 69 51 38 50 68 69 69 77 77 71 74
57 55 48 44 47 48 45 46 49 52 56 60 64 70 77 82 86 88 90 92 93 94 95 95 95 94 93 89 84 78 75 74 74 72 72 73 74 76 79 79 78 78 78 77 75 74 73 72 72 72 70 68 68 68 68 70 73 74 75 75 74 74 72 71 74 74 70 70 76 77 71 62 48 39 44 59 67 54 35 34 43 45 52 62 55 52 70
53 49 44 45 48 49 51 50 50 52 54 53 54 56 60 65 70 74 78 81 82 82 83 83 83 84 86 85 80 76 75 74 74 73 73 72 71 72 74 75 75 75 76 76 75 74 72 68 67 70 70 68 69 68 66 68 72 72 70 68 67 70 68 61 61 71 76 72 72 75 78 77 67 55 48 50 53 48 39 37 38 35 37 41 34 33 48
49 46 41 42 45 49 52 50 48 48 48 48 52 54 54 58 61 63 66 67 69 71 72 70 69 71 74 72 67 64 65 67 67 69 69 69 68 68 70 72 72 73 73 72 72 71 69 65 65 68 70 70 71 70 67 68 71 70 65 63 62 66 67 58 54 63 73 74 74 74 74 76 75 70 64 60 57 54 48 44 44 42 42 43 40 38 42
43 42 40 42 44 47 49 47 44 43 40 41 46 49 51 56 58 59 62 64 65 67 69 68 66 63 62 61 57 54 54 55 56 56 57 58 58 57 59 63 67 68 67 64 62 61 59 59 61 63 64 67 72 72 69 67 70 71 68 66 64 65 66 65 62 64 68 69 71 72 71 71 70 68 64 62 63 63 60 54 51 50 49 49 49 48 47
43 41 41 43 44 44 46 45 44 44 42 39 39 40 44 49 50 50 54 57 60 64 66 66 65 62 60 60 56 52 51 51 50 51 52 53 53 51 51 55 57 56 54 52 52 52 51 53 57 58 58 60 68 74 72 68 70 74 72 73 75 72 67 67 65 61 59 62 65 65 66 66 65 62 60 61 66 67 64 61 59 57 54 54 54 54 53
44 43 43 44 43 43 44 42 41 42 41 39 37 37 40 43 44 43 42 44 49 53 56 57 57 56 57 57 54 52 52 52 51 51 50 49 49 49 51 52 51 50 50 49 49 51 53 54 53 51 50 56 67 76 76 71 73 77 75 75 78 73 64 65 67 61 57 60 62 63 64 63 62 61 61 62 66 68 67 67 66 63 62 62 59 56 55
42 42 42 42 42 42 42 39 37 38 39 37 36 35 37 39 39 38 37 38 40 43 45 49 50 49 50 51 51 50 51 51 51 51 49 47 48 48 49 50 49 49 50 50 49 50 53 55 53 48 47 56 70 78 77 75 78 81 79 76 78 74 67 66 66 61 59 61 61 61 64 64 61 62 63 62 61 62 64 66 63 62 65 68 64 62 60
39 37 37 38 37 36 36 36 36 36 36 35 34 34 36 37 36 36 37 38 38 39 41 42 44 45 47 49 49 48 48 48 48 47 46 47 49 48 47 48 48 49 50 50 48 47 48 50 52 50 47 54 66 75 78 78 81 82 80 76 75 74 73 71 67 60 60 64 64 64 68 70 69 66 64 62 60 60 63 65 62 59 62 68 69 68 66
33 32 32 34 35 34 35 36 36 36 35 35 35 34 35 35 34 35 36 36 37 38 40 40 41 43 45 47 46 44 44 44 44 43 43 46 50 49 47 48 49 50 51 49 45 44 46 47 50 50 46 49 61 73 78 79 80 83 83 78 75 75 74 70 66 63 65 68 67 65 67 72 74 69 64 62 61 61 62 65 65 62 63 69 72 69 68
33 32 32 34 35 36 37 37 36 36 36 35 35 34 34 34 33 34 35 36 37 37 38 39 40 41 42 44 45 43 42 42 42 41 42 46 51 51 50 51 49 46 44 44 43 45 48 49 50 50 47 46 54 68 77 79 81 85 86 81 79 82 77 65 60 65 69 67 65 66 68 72 75 72 66 63 63 62 61 62 66 69 71 73 72 70 74
35 35 34 33 33 33 34 34 34 35 35 34 35 35 34 34 35 35 36 37 36 35 36 38 40 42 44 45 44 42 42 44 46 47 48 49 48 46 45 46 47 48 50 54 56 57 56 54 53 53 52 48 50 60 73 80 82 85 87 85 84 85 76 59 53 61 67 63 62 65 67 67 72 75 71 65 63 62 61 62 69 77 79 77 76 78 83
36 36 34 32 30 30 31 32 32 33 34 34 35 35 35 35 36 37 39 39 37 37 38 39 42 45 47 48 47 46 46 46 45 46 46 44 42 44 44 40 45 58 67 67 67 68 67 65 62 58 57 55 51 54 67 79 82 83 85 85 84 85 80 67 58 60 64 65 66 69 66 63 68 74 75 70 67 65 64 69 78 84 84 82 84 87 85
32 33 32 31 31 31 32 32 33 33 34 35 35 35 35 37 37 38 41 43 42 42 42 41 43 46 48 50 52 50 47 44 41 42 45 44 43 48 45 36 41 61 71 69 70 74 75 76 74 69 65 61 53 51 63 77 82 83 85 83 80 82 81 73 63 62 65 68 69 71 69 65 66 74 78 78 75 72 71 76 83 85 85 87 92 93 85
35 35 34 33 34 35 35 34 33 33 34 34 35 35 34 36 40 43 45 45 44 46 45 44 47 49 49 50 50 46 43 42 41 44 49 47 44 47 44 38 48 67 72 69 73 76 76 80 84 80 74 66 54 51 62 75 80 82 85 86 84 82 78 71 63 59 62 65 66 69 72 71 71 76 81 81 80 80 82 85 87 87 86 87 90 93 89
38 37 36 35 35 36 35 34 34 34 34 33 34 34 34 39 45 49 50 49 48 48 47 47 50 51 47 45 45 44 42 43 42 43 45 43 43 48 46 40 47 62 67 67 72 74 72 77 84 84 80 71 58 54 65 78 83 85 86 87 87 83 75 66 59 55 59 65 65 65 68 71 74 79 81 79 80 85 89 91 90 88 86 84 85 91 94
36 35 35 35 34 36 37 36 36 36 35 35 35 34 35 41 47 50 50 50 50 48 48 49 52 51 46 43 45 45 44 44 43 43 45 44 44 48 45 35 39 53 62 65 72 75 73 73 77 81 83 77 65 62 71 80 85 88 88 87 88 84 74 65 58 55 60 65 64 62 65 70 75 82 84 82 82 88 93 95 91 87 86 87 88 92 98
37 36 36 36 36 37 39 37 36 36 36 36 36 36 37 43 48 50 50 50 50 50 50 51 53 53 49 46 46 46 46 46 45 44 45 45 44 47 46 38 38 46 53 59 69 77 75 70 68 74 81 78 68 66 75 82 84 88 90 88 87 84 76 65 58 55 56 58 61 68 74 77 80 85 87 84 85 90 96 96 90 85 88 94 96 97 100
40 40 41 41 40 40 40 39 39 38 37 36 37 39 43 48 51 52 52 51 51 53 53 51 53 55 53 50 49 47 47 48 47 45 47 47 44 45 46 42 39 42 48 59 73 81 74 64 62 68 75 76 72 72 77 79 78 82 87 88 87 84 75 64 56 54 53 55 62 74 84 87 87 89 89 87 89 94 97 95 89 85 89 96 99 100 100
40 40 43 42 41 40 40 39 39 39 38 38 40 43 47 51 54 54 54 53 52 53 53 51 51 54 54 54 54 52 50 50 49 47 48 47 44 45 49 46 43 44 48 56 70 78 73 66 68 75 78 77 77 80 80 77 76 80 84 85 85 83 75 66 59 54 52 54 62 72 79 85 90 91 90 89 91 93 94 93 90 88 90 95 98 99 100
39 40 42 42 40 40 39 39 40 40 40 41 45 48 52 54 55 56 56 55 53 54 55 54 53 54 54 54 55 54 53 55 55 54 52 48 45 48 49 42 37 44 53 56 64 76 78 72 74 83 86 83 83 87 86 80 78 82 83 82 82 81 75 67 61 55 52 56 65 71 76 84 92 94 90 88 89 92 95 94 91 89 90 93 96 99 100
40 42 43 43 42 41 40 40 43 44 44 46 50 54 57 59 58 58 58 56 55 56 57 56 56 56 54 54 55 55 56 58 60 61 58 52 48 48 45 33 30 44 55 50 47 59 72 73 73 79 84 83 85 87 79 66 64 71 75 73 72 73 72 69 63 55 50 52 60 68 76 85 92 91 88 86 89 93 96 95 92 90 91 92 93 96 99
43 45 46 44 43 42 42 43 46 48 49 52 55 57 59 61 61 61 59 58 58 59 59 58 58 58 57 56 57 57 57 58 59 60 59 56 52 48 41 32 31 41 47 39 36 50 68 77 79 79 79 78 80 78 63 47 48 60 65 60 57 61 67 69 64 58 51 49 52 61 73 84 90 91 88 88 91 95 96 95 93 90 90 91 91 93 95
48 49 47 45 44 43 44 46 47 48 50 54 57 59 61 63 63 62 61 59 59 60 60 59 59 60 60 60 60 59 59 59 58 57 57 56 54 51 46 39 36 38 37 33 37 48 58 63 68 71 69 67 69 67 56 46 48 55 55 50 50 57 64 67 65 60 54 50 50 55 65 77 88 92 90 89 91 94 95 94 92 89 89 90 91 92 93
52 51 48 47 48 49 48 47 47 50 55 59 60 62 63 63 63 63 62 60 59 59 60 60 59 59 60 61 61 59 58 55 54 54 53 50 49 51 50 44 38 34 30 28 34 41 43 44 51 56 56 53 55 58 56 54 54 53 48 46 49 56 62 66 67 64 56 51 51 52 55 65 79 88 88 88 92 95 95 94 91 89 88 89 91 93 94
51 50 51 53 55 53 48 45 46 53 59 61 60 60 60 60 61 62 62 61 61 61 61 62 61 60 60 60 60 60 59 55 51 51 51 46 44 47 48 43 38 33 28 26 31 36 36 37 42 45 44 43 45 50 55 57 56 50 45 44 48 54 59 64 67 66 60 56 55 53 51 54 65 76 83 87 91 93 93 93 91 88 88 89 90 91 91
49 49 50 53 52 49 46 48 54 61 64 62 59 57 58 60 63 64 62 61 63 63 63 62 62 63 63 62 60 60 60 58 53 52 51 48 46 46 45 42 38 30 21 21 29 37 40 41 40 36 32 33 36 42 51 57 55 49 45 44 45 50 56 60 64 67 64 58 56 56 55 54 57 63 72 82 89 91 93 95 93 89 87 86 85 84 84
49 47 46 45 45 46 48 53 58 61 61 58 54 53 57 62 66 65 63 62 64 65 64 63 63 63 63 63 61 59 57 55 53 52 51 50 49 48 46 45 43 33 22 19 25 31 32 31 27 22 19 20 22 31 47 58 56 50 48 47 46 50 54 58 63 69 69 62 59 61 61 58 57 60 67 76 83 87 90 93 92 88 85 82 80 80 79
48 47 47 48 50 50 52 54 55 52 49 46 45 49 57 64 67 66 65 66 66 66 65 64 63 61 62 63 62 60 57 56 55 53 52 51 50 49 47 47 47 41 32 27 28 25 18 11 9 10 10 7 8 21 42 56 56 53 51 49 47 49 53 58 65 71 71 66 64 66 65 62 60 61 66 73 79 83 86 90 89 85 83 83 82 81 80
48 49 49 49 48 46 46 50 49 44 40 41 45 53 60 65 66 65 64 64 64 64 63 62 60 60 61 62 60 58 58 59 58 55 53 53 53 51 48 47 47 44 40 40 42 39 29 19 14 11 6 2 10 30 49 56 55 54 54 51 49 50 56 64 71 74 72 67 65 65 64 63 63 62 63 68 73 77 82 87 86 82 82 85 85 83 83
47 47 45 44 42 43 48 53 52 48 48 52 58 63 67 67 65 63 61 61 61 61 60 59 59 60 61 60 58 56 57 59 61 60 58 58 58 57 55 52 48 44 42 42 43 42 38 34 32 24 10 5 20 44 57 56 53 54 55 54 55 60 66 71 73 73 73 71 68 63 61 62 63 64 66 68 70 73 78 83 84 83 83 85 84 83 83
48 46 43 42 42 46 52 57 58 59 61 64 66 66 66 65 64 63 63 62 61 60 59 59 61 63 62 61 62 62 60 59 59 59 58 57 57 58 57 54 50 46 43 42 42 43 41 41 42 38 26 19 30 45 47 40 41 51 60 62 62 65 71 73 72 73 77 77 72 68 68 67 64 64 68 73 74 75 78 82 85 86 86 87 87 86 84
50 48 46 45 46 48 53 58 60 61 63 64 64 63 63 63 63 64 65 63 61 60 60 61 64 65 65 65 67 66 62 57 55 54 54 54 54 54 54 52 50 47 44 42 43 45 43 40 41 42 37 35 40 44 37 27 29 47 65 70 65 62 64 65 62 63 69 69 61 60 70 77 74 70 74 80 81 78 75 76 80 82 82 85 90 91 89
Wind_Speed
11 6 3 6 6 5 3 4 5 7 7 6 5 4 4 5 5 2 3 3 6 7 6 7 7 6 6 7 9 11 13 14 15 15 16 17 17 17 17 17 16 15 15 14 11 8 8 11 11 13 15 18 19 21 25 26 24 24 27 28 27 28 27 27 27 26 26 26 24 23 23 22 20 18 16 14 13 12 11 10 8 7 7 7 7 7 7
10 10 6 5 6 5 3 3 3 6 6 5 6 5 7 7 5 2 3 5 6 6 4 5 6 7 7 7 9 12 14 15 15 16 17 18 18 17 17 16 15 15 14 13 11 10 10 10 11 12 13 15 17 21 27 30 26 23 25 27 28 30 30 30 29 28 26 26 24 24 24 23 21 21 19 17 15 13 12 11 9 8 7 7 7 7 8
7 9 7 5 6 6 3 2 6 8 7 6 6 7 8 6 5 5 1 4 5 5 4 6 7 7 8 9 11 14 14 15 15 16 16 17 16 16 16 15 14 14 13 12 10 9 8 7 7 8 11 16 16 17 23 29 27 24 23 25 29 33 33 31 30 30 28 27 26 26 24 23 22 22 22 21 19 16 14 12 10 9 7 7 7 8 9
5 6 7 5 4 5 4 6 9 8 7 6 5 7 9 8 7 8 5 2 4 4 5 6 7 9 10 12 13 13 14 15 16 16 17 16 16 16 15 15 14 14 13 13 12 11 9 7 6 6 8 13 14 13 20 28 28 26 26 26 28 32 33 32 31 31 29 28 28 27 25 24 23 22 21 20 17 16 15 13 10 9 9 8 9 12 13
3 2 4 3 4 4 2 5 8 7 6 6 5 8 11 10 9 7 4 4 4 4 5 5 7 9 11 13 14 13 13 15 16 16 17 16 15 15 15 15 15 14 14 14 14 14 12 9 7 5 4 8 10 14 20 29 31 29 28 29 30 31 31 31 31 31 30 29 29 27 26 25 25 24 21 17 13 13 13 11 10 11 12 11 10 12 11
2 2 5 5 5 3 1 5 6 6 5 7 5 7 11 10 8 7 4 6 6 5 6 7 8 10 12 13 15 14 14 14 15 16 16 15 16 16 15 16 15 15 16 15 15 14 13 12 10 7 4 2 6 12 18 26 31 29 27 28 28 28 27 28 30 31 31 31 29 28 28 27 26 24 20 16 13 13 14 13 12 13 14 13 10 9 9
1 3 0 5 3 2 3 5 7 6 5 6 4 5 11 12 10 9 7 8 8 8 9 10 10 12 13 15 16 17 16 15 15 16 16 16 16 16 16 17 17 18 19 18 17 15 14 13 13 11 11 7 2 8 15 21 26 26 24 23 23 24 26 25 26 28 30 31 30 29 28 26 23 19 16 15 14 15 15 14 15 15 15 13 10 8 8
1 2 3 2 2 3 4 4 9 9 5 6 4 4 10 13 9 7 7 7 8 9 9 10 10 11 12 15 18 18 17 16 16 17 17 17 16 16 17 18 19 19 19 20 20 18 16 15 15 14 13 11 7 6 12 19 22 22 21 20 20 23 26 25 25 25 25 26 27 27 24 21 17 13 13 14 15 16 16 16 17 18 17 15 12 10 10
3 4 1 4 5 4 4 4 7 7 5 5 4 1 7 11 10 7 5 4 7 7 7 8 8 8 8 11 14 17 17 15 15 16 17 17 16 17 16 16 18 19 21 22 21 19 18 18 18 16 13 13 12 10 12 17 20 22 23 24 24 25 25 25 25 23 17 17 21 21 16 15 16 16 16 16 16 17 17 17 19 19 19 17 15 13 12
4 3 1 4 5 3 5 6 6 6 4 3 2 2 2 9 12 9 5 3 6 5 5 5 2 4 2 5 9 14 15 13 13 14 16 16 17 17 16 16 19 21 23 23 22 20 21 21 21 19 16 16 18 17 16 17 18 19 21 23 23 24 24 22 21 20 15 16 20 18 15 18 21 21 20 19 18 18 17 18 19 19 18 17 15 14 13
4 3 2 1 1 3 6 8 7 7 5 1 2 3 1 8 12 10 6 4 6 5 4 6 6 4 1 3 6 12 13 11 11 13 15 16 17 18 18 18 20 22 23 23 22 22 23 22 21 19 18 18 21 22 22 21 21 21 21 20 19 20 21 20 20 19 17 18 19 17 17 20 21 20 20 19 18 19 18 17 17 16 15 15 14 13 12
3 2 1 3 4 4 8 9 8 8 4 2 3 2 2 8 11 10 8 4 6 5 5 6 7 5 4 4 6 11 12 11 12 14 14 16 17 18 19 19 19 21 23 23 23 23 24 22 20 18 18 18 20 21 21 21 22 21 21 20 19 18 19 20 20 19 18 18 19 17 17 18 17 17 18 18 17 16 15 14 14 13 13 12 11 11 11
1 2 4 5 3 3 10 12 9 6 2 3 0 2 4 9 9 9 10 8 8 8 8 9 9 9 12 11 10 14 16 17 18 18 17 18 18 19 20 19 19 20 21 22 22 22 22 21 19 18 17 16 19 20 19 19 19 18 16 16 17 16 16 16 16 16 16 17 18 18 17 16 15 15 15 14 13 12 12 12 11 10 9 9 10 10 10
1 3 5 4 4 5 14 16 9 6 2 2 3 5 5 8 9 9 10 10 11 13 16 18 19 19 20 18 17 17 18 18 19 18 18 20 20 19 20 20 20 20 20 20 20 20 19 18 18 17 16 15 17 20 20 19 18 15 14 13 13 13 13 13 13 12 12 12 12 13 13 12 12 12 11 11 10 9 8 8 7 8 9 10 10 10 10
1 4 6 4 3 7 17 14 6 7 6 2 3 6 8 10 9 9 11 12 14 18 22 23 23 22 21 19 18 18 17 17 17 17 18 20 20 20 20 20 20 20 21 20 20 19 18 18 18 17 17 17 18 18 19 19 17 15 14 13 12 12 12 12 12 12 11 9 8 8 9 9 8 8 9 9 8 6 5 4 4 4 5 6 6 5 5
3 5 5 3 1 6 13 10 5 7 8 6 5 6 8 10 9 11 15 16 17 21 23 21 18 17 16 16 17 17 17 16 16 16 17 17 18 19 20 19 19 19 20 20 20 19 18 19 19 18 19 19 19 18 18 18 17 16 16 15 14 14 14 14 13 13 11 9 8 7 8 8 7 6 6 6 6 5 4 4 4 3 3 4 3 1 1
7 6 4 3 4 6 11 14 13 12 12 11 10 10 11 11 11 13 18 19 18 19 20 19 16 15 14 14 14 15 15 15 15 15 15 15 16 16 17 17 17 17 18 18 18 18 18 18 18 17 17 17 17 16 14 14 14 14 14 14 14 15 15 15 14 12 11 10 9 8 8 7 7 7 6 6 5 4 3 4 5 4 2 3 4 4 4
11 10 8 10 14 15 17 18 17 17 16 14 13 14 14 14 14 15 17 18 18 18 20 20 19 18 17 16 16 15 15 15 15 14 14 14 14 14 14 14 14 14 14 15 15 15 15 16 16 16 15 15 15 13 12 11 11 11 11 12 13 14 14 14 12 11 11 11 10 9 8 8 6 5 5 5 4 5 3 2 3 2 2 2 2 1 2
7 7 8 13 16 17 19 20 19 19 18 17 16 16 16 16 16 15 16 17 18 18 19 19 19 19 18 16 15 14 15 15 14 14 14 13 13 13 13 12 12 12 12 13 13 13 13 13 14 13 13 13 13 12 11 11 10 10 10 11 11 12 12 12 12 11 11 12 10 9 9 9 8 7 7 6 4 3 4 4 4 2 3 3 3 3 2
8 9 11 15 17 17 17 18 18 17 18 18 17 17 17 16 16 16 15 15 16 16 15 15 15 15 13 12 12 12 12 12 12 12 13 12 12 12 12 11 11 11 11 11 11 11 11 12 12 11 11 11 11 11 11 10 9 9 10 11 11 11 10 10 10 10 11 11 10 8 7 7 6 5 6 6 4 1 2 4 4 4 4 4 3 3 4
10 11 13 14 15 15 15 16 17 16 16 16 16 16 16 15 15 14 13 13 13 13 12 12 12 12 12 11 11 11 11 11 10 10 10 10 10 10 10 10 10 10 9 10 10 10 10 10 10 10 9 9 9 9 9 9 9 10 10 10 10 10 10 9 9 9 10 9 9 7 7 6 5 4 4 4 3 3 1 1 2 4 4 3 3 3 3
7 8 9 9 9 10 12 14 14 13 13 14 14 13 13 13 13 13 13 13 12 12 11 11 12 12 12 10 10 10 9 9 9 9 8 8 8 8 8 8 8 9 8 8 9 10 10 10 10 10 9 8 8 8 8 8 8 9 9 9 9 10 10 8 9 9 9 9 8 7 6 5 6 7 7 6 6 6 4 3 2 0 1 2 2 2 2
8 9 10 10 11 12 12 12 12 12 11 12 11 11 11 11 11 11 11 11 10 9 9 9 9 10 10 8 8 9 8 7 7 7 6 6 7 7 7 7 7 7 8 8 9 9 10 11 11 11 9 7 7 7 7 7 7 7 7 7 7 8 9 9 10 10 9 9 9 8 6 5 4 6 8 10 11 10 8 6 5 3 2 2 1 2 2
12 12 13 13 13 13 12 11 10 10 10 10 10 10 9 9 8 8 7 7 7 7 7 6 6 6 6 6 6 6 6 6 7 6 5 6 7 7 6 6 6 7 8 8 8 9 10 10 11 12 10 8 7 5 6 6 6 6 6 5 5 6 7 8 10 10 8 8 9 8 7 7 5 4 6 10 11 12 11 10 8 5 3 3 2 2 2
13 13 14 13 13 13 11 10 10 9 9 10 10 9 8 7 7 6 6 5 5 4 4 4 3 3 3 3 4 4 4 4 5 5 4 5 6 6 6 6 7 7 8 8 8 9 8 9 11 11 10 9 8 6 5 5 5 5 5 4 5 5 4 4 6 8 7 6 7 7 6 6 5 4 4 5 7 10 11 12 11 8 5 3 2 1 1
15 14 14 13 11 10 9 8 8 8 8 9 9 9 8 8 7 6 6 5 4 3 3 2 2 1 2 2 2 3 4 3 4 5 5 5 6 6 6 7 8 8 8 9 9 9 9 10 10 10 10 9 8 6 4 4 4 5 5 4 5 6 5 4 4 5 6 5 6 6 6 5 5 5 4 3 4 6 8 10 12 12 10 9 7 4 2
14 12 11 10 9 8 7 7 7 7 7 7 8 8 8 7 6 6 6 5 5 4 3 2 1 1 1 1 1 2 3 3 3 4 5 5 6 6 7 7 8 9 10 10 10 11 12 11 10 9 9 9 7 6 5 4 4 4 5 5 6 8 8 7 6 5 6 5 6 6 5 4 4 4 3 3 3 3 4 5 7 8 9 11 11 10 9
10 8 8 8 8 8 8 7 7 7 6 6 6 6 6 5 5 5 5 4 4 3 2 2 1 1 1 0 1 2 2 3 4 5 6 6 5 6 7 8 10 10 11 11 11 11 12 11 10 9 9 8 7 6 5 4 4 4 4 4 5 6 8 7 6 6 5 5 6 6 3 2 3 3 3 3 3 3 2 3 3 3 5 8 11 13 14
9 8 9 9 8 8 8 7 6 6 5 5 4 3 3 3 2 2 2 2 2 1 1 1 1 2 2 2 3 3 3 4 5 6 6 5 5 6 7 9 11 12 12 12 12 12 12 12 11 11 10 9 8 6 6 6 5 4 3 4 4 4 4 4 4 6 5 4 6 7 5 3 3 3 2 2 3 3 2 3 3 2 2 4 6 8 11
9 8 8 8 7 7 6 6 5 4 3 2 2 1 1 1 1 1 1 1 2 2 2 3 3 3 3 3 3 4 4 5 6 6 6 6 5 7 9 10 12 13 13 12 12 12 12 11 11 11 10 9 8 7 6 7 6 5 4 4 3 3 4 4 3 3 4 4 6 8 7 5 2 3 2 2 2 2 2 2 2 2 2 2 4 4 5
8 7 6 6 6 5 5 3 3 2 1 0 1 1 2 2 3 3 3 3 4 4 4 4 4 4 3 4 4 4 4 4 5 5 5 6 7 9 11 13 13 13 12 13 13 13 13 12 12 11 11 10 9 8 8 8 8 6 5 5 5 6 7 6 3 2 3 4 5 6 4 3 3 3 1 2 2 3 3 2 2 2 2 2 3 3 4
7 5 4 4 4 3 3 1 1 1 0 1 2 2 2 3 3 4 4 5 6 6 5 4 4 5 5 4 3 3 3 4 5 5 6 8 10 12 14 15 14 12 11 12 12 12 12 13 13 12 12 11 10 9 9 9 9 8 7 5 5 5 6 6 3 2 4 4 3 3 3 3 4 3 2 2 2 3 3 3 2 1 1 1 1 3 5
5 5 4 3 2 1 1 1 1 1 1 1 2 3 3 3 4 5 5 6 6 5 5 4 4 4 4 4 3 3 4 5 5 6 7 8 10 12 15 17 14 11 11 12 13 13 13 13 12 12 11 11 10 10 10 10 10 9 7 6 5 4 5 7 6 3 3 3 4 5 4 3 3 3 2 1 2 3 2 2 1 1 1 0 1 5 6
4 4 4 2 1 1 1 1 1 2 2 2 3 3 3 4 4 5 6 6 5 5 4 4 4 4 5 6 6 5 4 4 5 5 7 9 11 13 16 16 12 10 11 13 13 14 13 12 11 10 10 10 10 10 10 11 11 9 7 6 5 4 4 5 6 4 3 4 5 6 5 3 3 3 2 2 3 2 1 1 1 1 1 1 1 5 8
4 3 2 1 1 2 2 3 3 3 3 3 4 4 5 5 5 5 5 6 5 5 4 3 4 5 6 8 8 7 5 6 7 8 9 11 12 14 16 15 11 10 12 12 12 12 12 12 11 9 9 10 10 11 11 11 11 9 6 6 5 4 3 4 5 5 5 5 4 5 5 5 5 3 2 2 3 2 1 2 2 1 1 1 1 2 6
2 1 1 1 2 2 3 4 4 4 4 5 5 5 6 5 6 6 6 5 5 5 4 3 4 6 7 8 9 8 8 8 9 11 11 12 12 14 16 16 12 10 10 11 10 10 9 11 12 11 10 9 9 10 11 11 10 7 6 6 5 4 3 4 5 5 5 5 4 6 9 9 7 5 2 2 3 2 2 2 2 1 1 1 2 2 4
1 0 1 2 3 3 3 4 4 4 5 6 6 6 6 6 6 6 6 5 5 5 4 4 5 6 7 8 10 11 11 11 12 13 12 12 12 14 16 16 12 10 10 10 9 7 8 12 15 12 11 11 8 9 12 12 9 6 4 5 5 5 4 4 5 5 5 5 4 5 7 6 4 3 2 2 2 2 1 2 1 1 1 1 2 3 4
1 0 1 2 2 3 3 4 5 5 6 7 7 7 7 7 7 7 6 6 6 5 5 5 5 6 7 9 10 12 12 13 13 14 13 13 13 13 15 15 11 9 9 8 7 6 8 9 8 4 9 11 8 8 11 10 7 5 4 5 5 5 3 4 5 5 5 4 2 2 3 2 2 2 2 1 1 1 1 1 1 1 1 1 2 3 3
1 1 2 2 3 4 4 5 5 6 7 7 8 8 8 7 8 7 7 7 6 5 6 6 6 6 7 8 9 10 11 12 13 13 13 13 12 13 14 14 10 8 9 9 7 6 6 4 3 1 5 9 7 6 9 9 7 5 5 6 5 5 4 4 5 5 6 5 4 3 3 3 2 2 2 1 1 1 1 1 2 2 1 1 1 1 2
3 3 3 4 5 5 5 6 6 7 8 8 8 8 8 8 8 8 7 7 7 6 7 7 7 7 8 8 8 9 10 10 10 11 12 12 12 11 12 12 8 6 7 8 7 6 6 3 2 1 1 4 6 6 9 10 9 6 5 6 6 5 5 4 5 5 4 4 4 3 3 3 3 2 2 2 2 2 2 2 2 2 2 1 1 1 1
4 4 5 5 6 6 7 7 7 8 9 9 9 9 8 7 8 8 8 8 7 7 7 7 8 8 8 8 8 8 8 8 8 8 9 9 9 9 10 10 6 3 5 8 8 7 7 6 5 3 1 3 4 6 7 7 6 5 5 7 7 7 6 5 5 5 5 4 4 3 3 3 3 2 2 3 3 3 3 3 3 3 3 2 2 2 1
5 5 5 6 7 7 7 8 8 9 9 10 9 9 8 8 8 8 8 8 8 7 7 8 9 9 10 9 9 9 9 8 8 8 8 9 9 9 9 8 6 5 8 11 9 6 5 6 8 7 4 3 5 6 6 4 3 2 5 8 8 7 7 6 5 5 5 5 5 4 4 4 4 3 3 4 4 4 4 4 4 4 3 3 3 2 2
5 5 6 6 7 7 7 8 8 9 9 9 8 8 7 8 8 9 9 9 9 8 8 9 9 10 10 10 10 10 10 9 8 8 9 9 10 9 8 6 6 9 11 10 7 4 5 6 7 7 5 4 5 7 6 3 2 4 7 8 7 7 8 7 7 6 6 5 5 5 4 4 4 4 4 4 5 5 5 5 4 4 4 3 3 2 2
5 5 6 6 6 6 7 7 8 8 9 8 8 7 8 8 8 9 10 9 9 9 9 9 9 9 9 10 10 10 10 9 8 8 8 8 8 8 6 5 6 9 10 7 4 5 6 6 6 8 9 8 7 8 7 5 4 6 7 8 8 8 8 8 8 7 6 6 6 6 5 5 5 4 4 5 6 6 5 5 4 4 4 4 3 3 2
5 5 5 5 6 6 7 7 8 8 8 8 8 8 9 9 9 9 9 9 9 9 9 9 9 9 9 9 10 9 9 8 8 7 7 7 6 4 3 3 5 8 9 7 5 5 6 7 9 11 11 10 9 9 8 7 7 7 7 7 8 9 9 9 9 8 7 7 6 6 5 5 5 5 5 6 6 6 6 6 5 4 4 4 3 3 2
4 4 5 5 6 6 7 7 8 8 9 9 8 9 9 9 9 9 9 9 9 9 9 8 8 8 8 8 8 7 7 8 7 7 7 6 5 4 4 4 5 7 9 8 6 5 8 11 12 12 12 11 10 10 10 9 8 8 8 8 8 9 9 10 10 10 9 8 7 6 6 6 5 6 6 6 6 6 6 6 5 5 4 4 4 4 3
4 4 5 6 6 7 7 8 8 9 9 9 9 9 8 8 7 8 8 8 9 9 8 8 8 8 7 7 7 7 7 7 7 6 6 6 5 6 6 7 7 8 8 6 4 5 9 12 13 12 12 12 12 11 11 10 9 9 9 8 8 9 9 10 10 10 9 8 7 8 8 7 6 6 7 7 7 6 6 6 6 6 5 5 5 4 3
4 5 5 6 6 7 7 7 8 8 9 9 9 9 8 7 7 7 7 7 8 8 7 7 8 7 7 7 7 7 7 6 6 5 5 5 5 5 5 6 7 9 9 7 5 6 8 9 10 10 11 11 11 11 10 10 9 9 8 8 8 9 9 10 10 10 9 8 8 7 8 7 6 6 7 8 7 7 7 7 6 6 6 6 6 5 4
4 5 6 6 6 6 7 7 7 8 7 7 8 8 7 6 6 6 6 6 6 6 6 7 7 7 7 7 6 6 6 5 5 5 4 4 5 5 5 7 9 9 7 5 5 7 9 9 8 8 8 7 7 7 8 8 9 9 8 8 8 8 8 10 11 10 9 9 8 8 7 7 6 7 8 8 7 7 8 7 7 8 8 7 6 5 6
5 5 6 6 5 6 6 6 6 6 6 5 6 5 5 5 5 5 4 4 5 5 5 6 6 6 6 6 5 5 5 4 5 5 5 5 6 7 7 7 8 8 6 4 4 7 9 9 9 9 9 6 3 5 6 7 8 8 8 8 8 7 8 12 14 12 10 9 9 8 8 8 8 8 8 9 8 8 8 8 9 11 11 10 7 6 6
5 5 5 5 5 5 5 5 5 5 5 4 4 4 4 4 4 4 4 4 4 4 4 5 5 5 5 6 6 6 4 3 4 5 5 5 6 7 7 7 9 10 9 6 4 5 7 8 9 10 10 6 2 4 6 7 7 7 7 7 7 7 8 10 12 11 11 11 11 10 10 9 9 9 9 10 9 10 10 9 9 10 10 9 9 8 7
5 5 5 5 5 5 5 4 4 4 4 4 4 4 4 4 4 3 4 5 4 3 3 5 5 4 4 6 5 3 2 2 3 3 3 3 4 5 5 5 7 8 8 7 5 5 5 6 7 9 9 6 1 4 7 7 5 5 6 6 6 6 7 9 10 11 12 14 15 13 12 11 10 10 10 10 9 10 11 11 11 11 10 9 9 10 9
Wind_Direction
290 290 181 167 190 197 199 247 292 310 312 335 348 334 360 346 289 289 52 96 125 107 75 56 50 47 40 30 27 24 22 24 26 30 36 34 31 29 25 21 19 14 11 5 354 332 304 287 274 260 245 238 237 231 216 201 189 184 182 178 179 180 178 178 176 172 172 173 174 174 167 162 160 158 155 150 149 150 145 141 141 144 152 155 154 159 157
296 278 236 204 217 208 206 253 340 344 321 345 14 4 0 339 295 294 86 104 93 71 54 52 53 54 49 42 40 36 30 29 29 32 35 34 32 30 25 21 20 16 12 7 357 342 321 299 283 271 253 237 235 231 219 205 192 186 182 175 177 182 182 181 180 176 176 177 176 172 164 160 157 154 150 147 144 143 139 136 137 137 141 146 152 156 153
295 272 237 218 226 213 183 76 22 2 346 7 25 14 8 351 315 320 21 112 90 68 65 62 58 58 55 48 44 41 35 31 33 36 37 36 34 31 27 23 22 21 21 19 13 358 340 322 295 271 246 234 234 229 216 201 187 183 181 173 179 187 186 183 182 180 179 177 174 172 170 167 166 163 159 153 148 146 145 142 137 136 142 148 149 154 167
261 247 225 205 207 207 153 67 25 4 1 10 28 37 27 14 357 344 336 59 78 84 87 74 64 57 51 47 43 41 39 37 39 41 40 38 37 34 30 27 25 26 29 31 30 24 15 358 325 291 254 236 218 195 197 195 183 179 180 174 176 183 182 182 183 182 180 177 175 176 176 175 175 172 166 161 160 160 159 154 146 141 148 155 161 174 188
253 304 293 240 189 208 173 62 15 353 7 5 21 47 32 16 7 350 350 53 71 113 116 88 66 54 48 46 40 37 40 42 42 43 43 41 40 38 35 32 31 31 33 34 33 32 31 18 354 332 286 242 200 163 173 186 183 182 186 183 179 177 175 176 180 179 177 176 176 176 176 177 177 176 173 174 176 175 173 177 179 173 172 174 179 190 197
247 31 334 278 214 206 144 68 15 347 22 24 19 37 26 17 10 356 17 69 81 103 98 82 76 67 59 55 47 40 42 43 43 44 44 44 44 44 43 40 38 41 44 44 41 41 45 40 27 21 18 267 190 153 153 172 182 185 187 186 185 182 179 178 178 179 178 177 175 174 174 176 177 178 181 186 189 188 190 198 200 195 194 199 204 203 196
251 106 259 265 237 149 122 79 23 3 32 28 21 56 39 23 10 7 34 70 72 75 86 90 92 85 73 62 51 43 41 42 45 47 46 45 47 48 48 49 49 51 52 54 53 52 56 59 55 49 49 49 118 140 134 152 171 179 179 180 182 183 181 177 174 175 174 173 172 172 173 174 175 178 185 192 197 198 200 202 200 199 204 211 213 207 200
277 182 205 221 123 103 117 70 20 15 21 6 1 77 49 26 12 15 35 58 65 76 95 100 104 106 90 66 48 40 39 42 47 52 51 50 51 53 55 57 57 55 56 60 62 61 61 64 64 60 58 58 65 101 116 130 149 160 166 170 172 172 171 169 166 165 163 164 165 164 166 172 179 189 195 195 199 202 201 201 200 199 203 207 207 203 201
255 245 196 118 129 109 71 33 17 19 12 356 350 73 54 31 15 11 23 60 76 88 107 116 135 146 110 66 39 31 34 41 48 55 57 56 55 57 58 59 58 60 65 67 67 67 65 64 64 63 68 76 80 88 96 108 126 140 149 154 159 163 164 163 163 160 157 165 168 166 173 191 202 207 204 198 198 200 202 203 204 204 205 206 206 205 203
269 257 147 131 166 140 46 18 13 12 348 337 326 247 73 29 11 10 24 63 85 102 123 113 172 226 133 67 25 19 28 39 49 55 58 58 58 58 60 60 60 64 69 68 66 67 68 68 68 68 73 82 87 89 87 90 103 116 126 134 143 151 154 155 159 160 163 176 183 189 206 211 205 201 198 194 192 193 195 199 203 205 205 206 207 209 209
269 270 235 182 140 86 28 3 356 352 337 298 250 229 104 21 8 18 34 67 95 95 77 45 2 307 165 95 20 19 29 37 51 59 60 59 61 62 60 60 61 64 66 65 62 62 63 66 70 72 76 82 86 89 89 89 92 95 99 107 118 131 139 145 153 158 160 168 177 186 194 192 188 188 186 186 186 185 185 190 194 196 197 200 202 204 209
249 265 235 74 70 45 5 350 348 348 335 217 216 219 51 6 2 25 35 53 91 67 36 42 26 19 88 84 30 39 51 53 59 66 68 69 73 74 68 63 60 59 60 59 57 56 54 56 62 67 70 74 79 83 86 88 91 92 94 98 104 114 125 133 138 143 147 150 153 158 164 165 165 167 168 170 173 175 176 178 184 189 193 199 204 209 217
202 132 111 93 88 29 353 341 344 353 299 197 264 352 354 352 2 36 38 41 67 61 64 82 76 74 89 90 68 62 67 68 68 71 75 78 79 79 75 73 67 60 56 54 52 52 51 49 51 55 57 60 67 73 78 80 83 85 88 93 100 106 111 116 121 128 136 137 136 140 146 150 155 159 162 165 170 178 184 185 189 196 203 212 222 230 237
249 137 112 106 113 33 351 333 336 4 336 211 42 31 24 17 27 50 49 54 78 85 88 95 98 99 99 93 80 69 66 66 67 72 80 81 78 74 72 72 71 67 62 55 50 49 50 51 52 55 57 59 61 65 69 70 72 74 78 85 91 96 101 107 110 115 122 126 129 136 142 148 156 162 166 172 178 188 196 200 207 211 214 222 229 229 233
335 108 88 83 109 10 348 335 340 18 15 32 38 33 45 46 48 64 67 74 93 101 100 99 98 97 92 85 78 72 69 68 68 72 78 78 75 72 67 64 65 66 64 60 54 51 53 56 59 62 67 69 68 69 71 71 72 72 74 77 80 83 88 94 96 98 103 108 115 123 128 133 141 149 154 159 164 168 171 180 201 205 204 216 230 233 240
4 77 63 37 309 345 359 16 59 47 45 65 53 45 61 61 62 78 85 91 101 104 103 100 93 87 85 83 82 77 73 73 73 72 73 73 71 68 63 60 59 59 59 56 52 49 49 52 55 58 62 65 65 65 67 68 70 74 75 77 81 83 84 86 88 93 97 100 105 106 109 117 124 130 136 138 139 142 148 148 145 156 183 181 167 140 127
57 77 88 88 91 58 48 61 72 68 67 72 67 70 77 75 79 91 95 98 103 103 102 98 89 82 81 83 83 80 76 75 75 73 70 69 66 61 57 55 54 53 51 48 46 45 43 43 45 47 51 54 54 54 56 55 56 60 63 65 70 75 80 80 80 83 86 88 92 95 99 109 118 125 127 127 131 139 156 158 143 139 172 172 164 183 187
89 85 92 91 84 78 74 74 74 73 74 76 77 81 83 85 91 97 98 100 103 103 102 99 95 93 91 87 82 78 75 74 73 72 68 65 62 57 53 52 50 47 47 45 44 43 40 39 40 39 40 45 47 48 49 49 50 53 52 54 56 57 60 62 63 67 75 76 75 77 81 83 87 105 119 122 127 131 133 150 156 160 172 143 130 196 217
103 88 92 93 87 83 82 80 78 77 77 78 81 86 91 96 99 99 100 105 107 105 102 100 99 98 94 89 82 76 74 72 69 66 64 60 58 55 51 48 45 43 44 43 41 40 38 36 37 36 36 39 41 43 45 45 48 53 54 54 54 52 50 49 47 48 57 62 58 55 66 72 67 67 73 71 81 121 118 92 75 58 53 66 72 69 56
96 102 101 93 86 83 82 81 80 80 80 82 84 88 94 100 102 102 104 107 107 106 103 99 99 97 91 87 84 79 75 73 68 65 62 57 53 50 46 45 44 43 41 39 37 37 35 32 31 32 34 34 34 36 38 40 44 51 54 54 53 52 51 51 47 43 48 56 51 42 52 67 69 74 78 68 55 71 147 125 120 124 103 86 96 101 70
102 109 108 100 91 85 80 79 82 82 83 86 89 91 95 99 101 104 107 108 109 109 106 102 100 99 94 91 88 81 76 71 66 61 57 52 47 43 40 41 41 36 35 34 31 29 28 25 24 25 26 26 28 29 29 30 32 36 43 46 46 47 47 50 52 45 42 50 53 44 38 33 25 42 81 88 58 21 349 130 160 179 174 181 200 160 107
108 109 109 105 101 93 86 86 87 85 86 87 87 89 93 98 101 103 106 109 108 105 104 102 100 99 98 96 89 80 73 68 62 56 51 45 39 34 32 31 28 23 22 20 17 15 17 16 15 16 16 15 18 22 23 23 23 26 31 32 31 31 29 36 51 48 36 37 46 48 45 29 9 12 27 35 29 17 10 22 32 23 211 242 238 176 163
107 108 106 101 99 100 98 95 92 88 87 86 84 84 88 93 99 104 107 110 110 107 107 105 97 93 96 97 90 79 71 64 55 50 51 47 35 26 23 19 14 12 9 7 4 1 3 5 5 6 7 2 1 8 14 15 17 22 25 23 23 22 13 15 31 39 31 26 30 32 34 35 19 360 358 1 6 10 14 25 38 51 70 70 80 138 162
108 109 107 105 105 105 103 98 90 83 80 80 83 86 88 91 98 101 102 109 113 114 115 113 100 90 90 89 80 69 64 62 49 37 38 38 25 17 13 8 4 360 358 357 355 351 351 353 353 352 354 350 346 352 0 4 10 16 17 17 21 21 11 6 17 26 26 22 24 23 20 23 30 14 347 343 347 355 7 21 31 42 62 73 88 123 143
107 107 108 108 107 106 105 99 87 77 74 76 78 79 78 83 91 91 90 99 108 113 117 119 112 97 87 80 64 46 46 56 41 27 26 25 15 9 3 357 353 349 344 341 341 338 338 341 342 343 344 339 333 333 344 351 357 6 12 17 14 9 13 20 16 16 18 18 17 19 18 17 23 27 13 352 343 345 357 12 20 22 29 31 30 138 168
105 108 111 109 105 105 106 101 92 88 85 83 83 81 78 79 83 81 77 80 87 95 104 109 110 98 88 91 61 33 36 44 28 13 8 5 1 357 351 345 341 336 331 330 328 323 320 326 330 332 334 332 324 317 324 333 338 350 2 6 351 347 8 56 43 10 6 12 11 12 17 20 20 19 24 25 2 343 343 356 4 7 6 3 358 347 327
108 112 115 112 107 109 110 102 97 98 95 89 89 90 86 81 78 77 75 73 72 70 70 72 73 60 62 75 24 11 23 29 9 356 351 347 344 341 338 335 332 327 323 321 317 314 315 319 320 319 322 324 318 306 302 305 315 334 351 356 346 345 0 30 42 15 357 4 8 6 8 16 21 23 23 23 18 4 349 347 349 349 348 349 352 352 345
106 109 114 113 108 106 107 107 106 104 100 93 89 88 87 83 79 78 74 66 61 60 60 56 39 348 331 337 316 319 330 332 328 331 335 333 331 330 330 327 324 321 316 312 309 307 307 308 308 307 311 315 311 298 280 275 291 310 327 337 338 337 345 3 14 1 348 352 355 349 344 5 21 26 30 21 12 5 353 346 344 345 340 338 343 350 349
100 96 98 103 106 105 107 112 113 108 102 97 91 86 84 80 74 67 57 40 25 12 343 328 322 305 291 297 302 303 309 317 319 323 328 326 321 322 324 323 319 315 309 306 306 305 301 298 296 296 299 302 301 289 265 257 269 280 296 317 328 336 340 342 342 338 338 337 342 353 23 67 33 7 11 10 2 352 333 323 324 328 328 321 327 344 348
103 100 99 104 113 117 114 115 115 113 112 111 102 75 26 4 344 346 351 324 300 297 288 272 275 282 279 279 285 289 297 305 309 317 322 319 312 313 317 319 317 313 307 303 304 304 301 295 289 288 290 292 291 281 261 251 255 259 267 276 271 276 291 281 265 300 328 312 313 341 20 45 4 333 345 337 331 329 314 305 308 306 305 309 317 329 332
111 108 106 108 115 115 113 115 121 121 119 23 319 300 299 305 307 313 317 304 295 296 290 274 272 277 274 270 275 282 288 294 302 312 314 306 300 305 314 318 316 311 308 306 304 301 297 289 282 279 280 279 277 273 259 248 248 251 253 255 255 270 290 292 256 246 312 315 298 309 342 344 299 301 333 323 319 322 304 287 285 286 291 312 324 328 330
123 123 122 116 114 112 107 104 134 157 254 301 297 292 297 310 316 319 317 308 302 303 299 282 268 265 262 260 266 273 280 287 290 287 290 297 301 307 316 321 317 310 308 311 309 304 297 289 280 275 270 266 264 264 255 244 242 243 243 247 254 268 297 328 345 271 275 301 298 279 284 294 288 288 293 293 311 326 306 284 278 282 297 332 307 293 319
142 145 139 121 105 93 81 60 320 298 295 290 290 294 301 310 316 315 312 309 306 304 299 284 264 255 253 243 238 250 270 285 286 277 279 293 302 308 317 323 321 312 308 309 307 303 298 291 282 272 262 254 253 255 249 237 234 238 240 238 239 252 285 322 345 324 266 281 291 281 280 283 280 280 283 292 311 321 302 267 246 238 251 18 277 282 313
99 107 108 93 40 356 2 338 303 297 283 270 273 283 289 297 307 312 315 316 312 303 294 280 254 241 245 243 242 249 263 277 281 277 283 294 299 307 319 327 323 307 305 308 307 304 300 293 284 271 256 247 244 246 242 232 229 235 243 243 241 247 272 305 328 328 292 283 290 290 288 277 264 270 277 278 291 301 272 220 196 184 178 121 299 301 322
92 94 97 72 332 317 305 297 294 295 288 279 280 283 286 295 304 309 316 319 313 301 291 273 251 252 256 251 245 247 254 263 269 274 283 293 297 305 321 329 320 302 305 311 308 304 301 293 283 267 248 240 240 238 235 229 226 230 243 246 241 242 258 281 299 303 289 283 288 287 275 259 249 251 260 265 272 274 229 191 172 161 161 112 81 324 331
125 134 163 280 304 300 285 280 280 279 281 285 285 282 283 291 298 302 308 313 306 299 291 268 256 263 260 246 240 246 253 259 266 272 282 291 294 302 318 329 324 308 310 315 313 311 307 296 285 265 232 222 232 235 231 227 223 227 243 251 244 242 259 277 286 291 287 284 282 278 272 262 246 236 246 265 264 252 206 181 161 136 125 59 62 38 6
117 332 304 304 306 302 290 283 281 277 275 277 278 280 283 288 291 294 300 301 298 295 286 267 259 264 260 248 246 251 255 259 265 272 281 290 291 297 314 327 324 309 308 317 324 324 308 296 291 270 225 208 221 231 226 223 221 223 245 265 258 246 254 281 288 288 286 281 270 273 278 266 233 224 254 266 243 222 181 160 140 83 68 49 45 49 43
123 259 316 308 302 297 292 288 285 281 277 276 275 278 282 285 288 291 296 296 292 285 278 270 263 261 261 258 258 259 261 263 266 271 279 285 287 295 310 319 317 309 311 319 327 322 308 307 312 271 205 201 215 230 224 215 209 215 243 265 261 248 257 285 286 284 289 291 284 289 302 280 218 232 273 287 232 215 173 139 123 72 58 46 41 51 54
232 269 293 302 299 299 298 293 287 282 279 279 278 278 279 281 285 289 291 291 287 280 275 272 267 263 266 267 267 269 272 272 271 272 276 280 283 293 305 308 301 292 299 308 315 312 304 319 30 82 198 194 193 218 226 214 200 211 245 257 251 244 255 274 279 284 290 284 266 263 286 285 265 258 271 275 238 217 201 164 136 121 104 51 38 60 75
278 281 284 290 295 296 295 292 287 283 282 282 281 281 279 278 282 286 288 288 285 278 273 271 269 269 272 273 273 277 280 278 276 278 281 279 277 283 297 305 302 288 292 306 312 299 277 242 121 54 239 180 179 212 228 215 203 212 241 251 247 244 248 255 267 279 281 265 254 261 270 265 256 247 240 237 225 209 202 174 138 145 164 178 151 144 134
284 285 286 289 292 294 292 290 286 284 283 282 281 280 277 276 279 286 290 290 287 281 277 276 272 270 272 276 279 283 282 275 275 277 275 272 270 273 288 305 310 282 281 304 312 298 273 245 220 218 199 164 192 230 236 217 201 213 240 249 250 249 246 247 258 265 261 256 264 276 263 247 246 243 229 223 217 204 196 186 173 178 189 187 177 183 179
284 287 290 291 290 291 290 289 286 284 284 283 281 279 275 271 273 278 284 287 286 282 279 276 273 273 275 275 276 278 277 272 270 266 257 255 262 274 291 309 310 281 286 306 316 307 283 271 260 251 230 195 216 242 244 221 186 220 251 256 255 251 247 246 247 251 255 257 255 252 244 243 245 236 221 220 220 208 195 188 188 192 196 192 191 198 193
284 288 290 290 291 292 291 290 289 290 289 287 285 283 278 273 272 274 278 281 281 279 277 276 275 275 275 271 268 271 273 270 268 264 258 257 262 266 275 298 304 289 293 307 311 282 273 283 282 278 276 258 248 257 258 237 210 241 257 257 250 243 242 243 241 243 250 252 247 243 244 246 246 242 231 222 217 208 196 190 191 197 199 195 195 201 205
283 286 287 289 293 294 293 292 293 294 293 292 290 287 282 278 276 276 276 277 276 274 275 275 274 274 273 270 268 267 266 265 264 260 255 261 264 255 250 275 299 296 298 310 308 283 282 277 264 267 277 276 266 266 269 260 248 253 258 255 249 243 242 241 240 241 243 244 244 244 242 237 238 242 235 219 210 203 196 190 192 199 200 200 206 214 216
280 282 284 290 293 294 296 296 296 295 295 295 295 292 287 283 281 279 277 276 275 274 274 274 276 277 276 272 268 263 260 265 271 265 258 268 275 258 241 281 304 298 298 308 313 300 290 275 263 266 275 273 262 258 256 252 252 258 259 254 249 245 242 241 240 238 237 239 243 248 247 241 238 240 236 222 210 202 197 192 194 200 201 205 215 219 206
276 277 280 286 291 296 298 297 295 294 294 295 295 295 293 288 282 279 278 276 274 274 273 272 273 275 273 269 265 259 255 259 264 262 259 265 267 256 263 293 313 311 305 305 304 290 280 276 275 279 282 275 265 257 251 247 252 259 260 255 248 242 240 242 241 237 233 235 239 243 243 237 232 236 237 226 212 207 202 193 191 202 209 211 217 215 206
271 277 283 287 292 297 299 299 298 295 292 292 296 300 301 294 286 283 284 282 277 274 273 270 269 268 264 259 258 258 259 261 263 259 255 254 255 259 271 289 318 337 335 321 294 276 277 279 283 288 286 276 265 257 249 247 254 259 258 255 249 243 240 242 241 235 231 232 236 240 241 236 231 234 237 228 215 213 210 199 196 204 210 210 212 210 206
268 278 285 288 292 298 301 300 297 293 291 295 299 301 300 296 292 291 291 287 281 276 271 267 265 261 256 253 254 257 261 265 267 265 257 252 254 261 261 266 287 319 340 343 327 318 316 309 304 303 296 282 267 253 243 244 252 258 258 257 254 247 242 243 241 234 228 230 236 242 246 246 241 237 235 230 224 221 216 208 205 210 213 215 217 215 209
271 281 284 284 290 300 303 298 291 291 295 299 300 297 295 296 298 299 297 293 286 277 269 263 259 255 251 247 245 247 249 251 256 262 263 258 257 263 266 266 277 299 329 342 323 326 342 348 340 330 320 302 272 248 241 246 252 253 252 253 254 249 243 241 238 230 222 227 237 244 244 243 243 240 235 233 232 229 222 213 210 213 214 214 216 219 218
271 281 286 287 292 300 303 299 297 300 302 299 295 295 295 295 299 307 315 311 297 283 274 269 260 251 245 240 234 235 242 248 252 260 266 265 262 266 267 263 267 285 306 311 288 301 329 352 2 359 349 334 280 234 238 248 253 254 255 252 245 241 242 243 241 232 219 217 230 243 245 242 241 241 238 232 229 228 227 223 221 222 219 213 213 223 230
268 277 289 294 294 295 298 303 305 306 304 301 301 305 305 300 303 316 328 325 315 301 287 278 263 246 245 248 241 232 234 249 260 269 276 274 269 273 272 257 254 268 285 293 282 285 307 330 351 1 2 1 319 250 256 256 249 248 253 248 235 231 242 249 247 240 232 229 232 238 240 238 237 240 241 235 226 223 223 224 226 229 226 217 216 225 231
261 268 280 286 282 278 282 295 303 304 307 316 319 313 305 302 304 314 323 321 318 310 292 280 267 254 260 265 257 236 225 247 256 268 283 277 266 270 275 264 254 261 273 278 274 267 274 289 313 338 356 11 336 264 282 286 262 235 239 246 240 237 247 255 252 246 246 249 250 246 240 235 233 235 237 236 231 229 228 226 226 231 233 226 219 220 223